Location: Newark
(42.8481°N, 0.4872°E)
Time: 08:34:53
(UTC+00:00)

Vanguard 1 - Pass Details

Date: 31 October 2020
Orbit: 650 x 3833 km, 34.2° (Epoch: 28 November)

Event Time Altitude Azimuth Distance (km) Brightness Sun altitude
Rises 10:15:09 0° 212° (SSW) 6,537 14.7 29.5°
Reaches altitude 10° 10:19:25 10° 205° (SSW) 5,888 14.7 29.8°
Maximum altitude 10:37:15 41° 143° (SE) 4,726 15.3 30.9°
Drops below altitude 10° 10:57:31 10° 84° (E) 6,690 14.5 31.9°
Sets 11:02:42 0° 78° (ENE) 7,471 14.6 32.1°
